Regional Weather Roundup
Issued by NWS

Home | Current Version | Previous Version | Text Only | Print | Product List | Glossary Off
Versions: 1 2 3 4 5 6 7 8 9 10 11 12 13 14 15 16 17 18 19 20 21 22 23 24 25 26 27 28 29 30 31 32 33 34 35 36 37 38 39 40 41 42 43 44 45 46 47 48 49 50

363
ASUS43 KLOT 232003
RWRIL

ILLINOIS REGIONAL WEATHER ROUNDUP
NATIONAL WEATHER SERVICE CHICAGO/ROMEOVILLE IL
200 PM CST THU FEB 23 2017

NOTE: "FAIR" INDICATES FEW OR NO CLOUDS BELOW 12,000 FEET WITH NO
SIGNIFICANT WEATHER AND/OR OBSTRUCTIONS TO VISIBILITY.

* THESE STATIONS ARE NOT UNDER NWS QUALITY CONTROL. THEY ALSO MAY NOT
  REPORT WEATHER SUCH AS PRECIPITATION OR FOG.

ILZ001-002-007-009-015-016-024-232100-
NORTHWEST ILLINOIS

CITY           SKY/WX    TMP DP  RH WIND       PRES   REMARKS
MOLINE         CLOUDY    50  40  68 E13       29.72F
STERLING*      LGT RAIN  48  42  80 NE10      29.74
SAVANNA*       CLOUDY    46  39  78 NE14      29.75F
$$

ILZ003-004-008-010-011-017-018-232100-
NORTH CENTRAL ILLINOIS

CITY           SKY/WX    TMP DP  RH WIND       PRES   REMARKS
ROCKFORD       CLOUDY    48  39  71 E13       29.81R
FREEPORT*      CLOUDY    45  39  81 NE13      29.79F
ROCHELLE*      CLOUDY    47  41  79 E14       29.79S
DE KALB*       CLOUDY    45  38  77 NE10      29.82R
PERU*          CLOUDY    51  42  72 E9        29.74F
$$

ILZ005-006-012>014-019>023-232100-
NORTHEAST ILLINOIS

CITY           SKY/WX    TMP DP  RH WIND       PRES   REMARKS
CHICAGO-OHARE  CLOUDY    42  35  76 NE16      29.81S
CHICAGO-MIDWAY CLOUDY    43  35  73 NE14      29.82R
AURORA         CLOUDY    46  38  73 NE14      29.81R
LANSING*       CLOUDY    42  39  90 NE15      29.81S
JOLIET*        CLOUDY    49  42  75 NE12      29.80R
WAUKEGAN       CLOUDY    38  34  85 NE9G17    29.84S WCI  31
DUPAGE AIRPORT CLOUDY    43  35  73 NE14      29.81R
KANKAKEE*      PTSUNNY   49  41  74 NE9G18    29.79R
WHEELING       CLOUDY    40  34  79 NE10G20   29.84S
MORRIS*        PTSUNNY   50  40  69 NE7       29.77S
ROMEOVILLE*    CLOUDY    46  42  87 NE14      29.80R
$$

LMZ740>746-232100-
SOUTHERN LAKE MICHIGAN

STATION/POSITION SKY/WX   TEMP    WIND        PRES    VSBY  WAVE
                          AIR SEA DIR/SP/G                  HT/PER
                          (F)     (DEG/KT/KT) (MB)    (MI)  (FT/S)
HARRISON CRIB              38      10/ 13/ 15   N/A
BURNHAM HARBOR             39     350/ 12/ 14   N/A
CALUMET HARBOR             38     340/  8/ 11 1009.3F
BURNS HARBOR               38      80/ 10/ 11 1010.2S
MICHIGAN CITY              37      40/  8/ 10   N/A
$$

ILZ025>027-034>036-040-047-049-050-058-095>099-232100-
WEST-CENTRAL ILLINOIS

CITY           SKY/WX    TMP DP  RH WIND       PRES   REMARKS
QUINCY         PTSUNNY   51  47  86 E15       29.64F
GALESBURG*     CLOUDY    47  44  90 NE9       29.72F
MACOMB*        LGT RAIN  48  45  88 NE10      29.72F
JACKSONVILLE*  CLOUDY    54  48  82 NE13      29.66F
PITTSFIELD*    LGT RAIN  53  49  88 NE13      29.66F
$$

ILZ028>032-037-038-041>044-048-051>054-059>061-232100-
CENTRAL ILLINOIS

CITY           SKY/WX    TMP DP  RH WIND       PRES   REMARKS
PONTIAC        CLOUDY    57  48  72 NE15      29.74F
BLOOMINGTON    CLOUDY    56  49  77 NE14      29.73F
DECATUR        CLOUDY    60  53  77 NE14      29.68F
PEORIA         CLOUDY    52  45  77 E9        29.72F
LACON*         PTSUNNY   51  44  78 E7        29.73F
LINCOLN*       CLOUDY    57  51  79 NE12      29.69F
SPRINGFIELD    CLOUDY    58  50  75 NE10      29.69F
TAYLORVILLE    CLOUDY    63  56  77 NE8       29.66F
$$

ILZ033-039-045-046-055>057-062-063-232100-
EAST-CENTRAL ILLINOIS

CITY           SKY/WX    TMP DP  RH WIND       PRES   REMARKS
CHAMPAIGN      CLOUDY    60  52  74 NE10      29.70F
RANTOUL*       CLOUDY    62  52  71 NE9       29.72F
MATTOON        CLOUDY    66  56  70 S12       29.68F
$$

ILZ079-100>102-232100-
SOUTHWEST ILLINOIS

CITY           SKY/WX    TMP DP  RH WIND       PRES   REMARKS
ALTON          PTSUNNY   68  55  64 SE13      29.63F
BELLEVILLE     CLOUDY    67  59  75 E12G20    29.64S
CAHOKIA*       PTSUNNY   70  55  59 SE17      29.63F
SPARTA*        CLOUDY    62  55  78 S13G22    29.68S
$$

ILZ064>066-069>071-074>076-080>082-084>086-088>090-092>094-232100-
SOUTH-CENTRAL ILLINOIS

CITY           SKY/WX    TMP DP  RH WIND       PRES   REMARKS
CARBONDALE     CLOUDY    69  56  62 S14       29.66F
CAIRO*         PTSUNNY   71  56  59 S15G22    29.69F
EFFINGHAM*     CLOUDY    67  56  68 S13       29.71S
MARION         PTSUNNY   70  57  64 S9        29.69F
MT. VERNON     CLOUDY    69  55  60 S14       29.68F
CENTRALIA*     MOSUNNY   69  57  64 S14G21    29.66F
SALEM*         PTSUNNY   69  53  58 S14       29.67F
METROPOLIS*    MOSUNNY   71  56  58 S10       29.70F
$$

ILZ067-068-072-073-078-083-087-091-232100-
SOUTHEAST ILLINOIS

CITY           SKY/WX    TMP DP  RH WIND       PRES   REMARKS
LAWRENCEVILLE  CLOUDY    69  57  65 S12       29.71F
FLORA*         CLOUDY    69  56  63 S10       29.69F
FAIRFIELD*     CLOUDY    69  56  62 S8        29.68F
HARRISBURG*    CLOUDY    70  57  62 SW10      29.70F
ROBINSON*      PTSUNNY   70  55  60 SW15      29.71S
CARMI*         CLOUDY    69  56  63 S10       29.70F
$$

ABBREVIATIONS USED IN REMARKS
   TC - TEMPERATURE IN CELSIUS
  WCI - WIND CHILL INDEX
   HX - HEAT INDEX
  VSB - VISIBILITY
$$





USA.gov is the U.S. government's official web portal to all federal, state and local government web resources and services.